GW0203 Weather Reports


Display with metric or nautical units.
time (UTC)temp
F
wind
direction
speed
MPH
gust
MPH
rain 1hr
in
rain 24hr
in
rain mn
in
humidity
%
barometer
mb
20260831081758 65 234 1.0 5.0 0.00 0.02 0.02 99 1016.7
20260831080254 65 131 2.0 4.0 0.00 0.02 0.02 99 1016.7
20260831074752 65 0 0.0 5.0 0.00 0.02 0.02 99 1016.7
20260831073251 65 0 4.0 5.0 0.02 0.02 0.02 99 1016.5
20260831071749 66 343 3.0 5.0 0.00 0.01 0.01 99 1016.4
20260831070249 66 345 0.0 7.0 0.00 0.01 0.01 99 1016.3
20260831064748 66 123 0.0 3.0 0.00 0.01 0.01 99 1016.4
20260831063245 67 330 5.0 5.0 0.00 0.01 0.01 99 1016.2
20260831061744 67 309 2.0 4.0 0.00 0.01 0.01 99 1016.3
20260831060241 68 336 5.0 5.0 0.00 0.01 0.01 99 1016.0
20260831054736 68 305 2.0 4.0 0.00 0.01 0.01 99 1016.0
20260831053235 68 300 1.0 2.0 0.00 0.01 0.01 99 1016.1
20260831051732 68 297 1.0 3.0 0.00 0.01 0.01 99 1016.1
20260831050231 68 331 0.0 2.0 0.00 0.01 0.01 99 1015.7
20260831044727 68 180 0.0 2.0 0.00 0.01 0.01 99 1016.0
20260831043225 68 0 0.0 1.0 0.00 0.01 0.01 99 1015.8
20260831041720 69 350 0.0 2.0 0.00 0.01 0.01 99 1015.8
20260831040220 69 346 0.0 3.0 0.24 0.01 0.01 99 1016.0
20260831034717 70 293 2.0 3.0 0.21 0.41 0.41 99 1016.2
20260831033214 69 340 1.0 9.0 0.45 0.34 0.34 99 1016.0
20260831031710 69 143 0.0 3.0 0.33 0.20 0.20 99 1016.2
20260831030208 70 285 1.0 3.0 0.14 0.13 0.13 99 1016.2
20260831024704 70 139 0.0 3.0 0.19 0.09 0.09 99 1016.3
20260831023200 70 241 2.0 4.0 0.07 0.04 0.04 98 1016.3
20260831021656 70 163 2.0 6.0 0.00 0.02 0.02 97 1016.0
20260831020153 70 180 2.0 8.0 0.02 0.02 0.02 97 1016.0
20260831014649 71 172 0.0 4.0 0.02 0.02 0.02 96 1016.1
20260831013146 71 201 0.0 6.0 0.00 0.01 0.01 95 1016.2
20260831011641 71 270 0.0 4.0 0.02 0.00 0.00 93 1016.2
20260831010140 72 325 1.0 11.0 0.00 0.00 0.00 92 1016.0
20260831004636 72 270 2.0 5.0 0.00 0.00 0.00 91 1016.0
20260831003135 72 180 0.0 5.0 0.00 0.00 0.00 90 1016.0
20260831001630 72 228 8.0 8.0 0.00 0.00 0.00 89 1015.7
20260831000128 72 235 5.0 9.0 0.00 0.00 0.00 89 1015.8
20260830234628 73 241 3.0 7.0 0.00 0.00 0.00 88 1015.5
20260830233127 73 203 2.0 5.0 0.00 0.00 0.00 88 1015.7
20260830231626 73 208 0.0 5.0 0.00 0.00 0.00 87 1015.8
20260830230121 73 229 5.0 10.0 0.00 0.00 0.00 85 1015.6
20260830224621 73 279 0.0 5.0 0.00 0.00 0.00 82 1015.8
20260830223120 74 215 1.0 5.0 0.00 0.00 0.00 80 1016.1
20260830221617 74 250 2.0 11.0 0.00 0.00 0.00 78 1015.9
20260830220113 75 176 4.0 8.0 0.00 0.00 0.00 73 1016.1
20260830214608 75 196 2.0 6.0 0.00 0.00 0.00 72 1016.2
20260830213104 76 245 4.0 6.0 0.00 0.00 0.00 71 1016.0
20260830211601 77 248 3.0 7.0 0.00 0.00 0.00 64 1016.4
20260830204600 77 223 5.0 7.0 0.00 0.00 0.00 63 1016.2
20260830203056 77 206 2.0 9.0 0.00 0.00 0.00 65 1016.4
20260830201556 79 181 5.0 8.0 0.00 0.00 0.00 62 1016.2
20260830200051 78 217 4.0 6.0 0.00 0.00 0.00 62 1016.4
20260830194550 80 270 0.0 4.0 0.00 0.00 0.00 59 1016.4
20260830193045 80 209 4.0 11.0 0.00 0.00 0.00 58 1016.8
20260830191542 80 227 5.0 9.0 0.00 0.00 0.00 59 1016.9
20260830190040 80 243 2.0 12.0 0.00 0.00 0.00 54 1017.2
20260830184539 81 250 5.0 9.0 0.00 0.00 0.00 51 1017.4
20260830183037 82 218 7.0 15.0 0.00 0.00 0.00 52 1017.1
20260830181536 86 214 5.0 5.0 0.00 0.00 0.00 55 1017.6
20260830180034 84 176 2.0 8.0 0.00 0.00 0.00 55 1017.9
20260830174530 84 339 5.0 10.0 0.00 0.00 0.00 50 1018.0
20260830173027 83 218 5.0 12.0 0.00 0.00 0.00 54 1018.0
20260830171526 81 220 3.0 15.0 0.00 0.00 0.00 55 1018.0
20260830170025 82 180 3.0 10.0 0.00 0.00 0.00 56 1018.2
20260830164524 82 239 3.0 5.0 0.00 0.00 0.00 56 1018.3
20260830163022 82 207 5.0 5.0 0.00 0.00 0.00 55 1018.4
20260830161519 82 309 5.0 7.0 0.00 0.00 0.00 54 1018.5
20260830160016 80 0 0.0 9.0 0.00 0.00 0.00 61 1018.7
20260830154515 80 77 0.0 8.0 0.00 0.00 0.00 62 1018.7
20260830153013 78 191 7.0 9.0 0.00 0.00 0.00 64 1018.9
20260830151512 78 335 4.0 10.0 0.00 0.00 0.00 64 1019.1
20260830150007 77 210 3.0 13.0 0.00 0.00 0.00 66 1019.2
20260830144504 76 165 5.0 12.0 0.00 0.00 0.00 67 1019.6
20260830142959 76 242 5.0 6.0 0.00 0.00 0.00 68 1019.8
20260830141457 74 225 0.0 6.0 0.00 0.00 0.00 76 1019.7
20260830135957 74 174 0.0 4.0 0.00 0.00 0.00 74 1019.6
20260830134456 73 203 3.0 8.0 0.00 0.00 0.00 75 1019.8
20260830132954 72 192 2.0 6.0 0.00 0.00 0.00 79 1019.9
20260830131449 71 195 1.0 6.0 0.00 0.00 0.00 76 1020.2
20260830125949 72 229 0.0 5.0 0.00 0.00 0.00 76 1020.1
20260830124444 71 258 0.0 5.0 0.00 0.00 0.00 79 1020.2
20260830122941 70 228 2.0 7.0 0.00 0.00 0.00 83 1020.3
20260830121437 69 335 0.0 4.0 0.00 0.00 0.00 87 1020.4
20260830115935 69 216 2.0 8.0 0.00 0.00 0.00 87 1020.2
20260830114434 67 330 0.0 3.0 0.00 0.00 0.00 90 1020.5
20260830112930 67 342 1.0 3.0 0.00 0.00 0.00 89 1020.4
20260830111430 66 228 0.0 5.0 0.00 0.00 0.00 89 1020.3
20260830105925 66 151 0.0 5.0 0.00 0.00 0.00 89 1020.1
20260830104420 66 20 0.0 4.0 0.00 0.00 0.00 88 1020.3
20260830102919 65 206 4.0 4.0 0.00 0.00 0.00 86 1020.3
20260830101418 65 173 1.0 5.0 0.00 0.00 0.00 85 1020.5
20260830095915 64 331 0.0 7.0 0.00 0.00 0.00 85 1020.5
20260830094415 65 195 2.0 5.0 0.00 0.00 0.00 83 1020.5
20260830092913 65 300 2.0 4.0 0.00 0.00 0.00 83 1020.5
20260830091411 65 261 0.0 3.0 0.00 0.00 0.00 82 1020.2
20260830085911 65 294 0.0 4.0 0.00 0.00 0.00 81 1020.5
20260830084409 64 243 3.0 4.0 0.00 0.00 0.00 81 1020.5
20260830082905 64 276 1.0 3.0 0.00 0.00 0.00 84 1021.1